Погода в Шабурово

Россия / Челябинская область     56°12′48″N   61°14′12″E
темп.,
°C
ветер,
м/с
пор.,
м/с
влажн.,
%
обл.,
%
осадки,
мм/ч
давл.,
гПа
погр.,
м
18 мая, ср
ср1823:00+9юз22855 0.3 100319
02:00+8юз238766 0.0 100341
05:00+6зюз399455 0.0 1004213
08:00+11зюз466736 0.0 1004541
11:00+14ююз4548100 0.0 10041548
14:00+17ю5638100 0.0 10022406
17:00+14ююз5858100 0.1 10011470
20:00+10юз3588100 2.8 1001371
19 мая, чт
чт1923:00+8юз1294100 9.2 100162
02:00+7юз3894100 0.0 1000255
05:00+6зюз5129228 0.0 1000448
08:00+8з61084100 0.0 1001716
11:00+9з6977100 0.1 10021032
14:00+11зюз6962100 0.2 10031689
17:00+8з61075100 0.4 10061015
20:00+9зюз486883 0.0 1006518
20 мая, пт
пт2023:00+6юз3108490 0.0 1006282
02:00+5з5108613 0.1 1006611
05:00+5зюз597764 0.1 1007731
08:00+7зюз586884 0.0 10081128
11:00+10зюз685438 0.0 10081651
14:00+11з5748100 0.0 10081656
17:00+11з4545100 0.0 10071680
20:00+9ююз1164100 0.0 100547
21 мая, сб
сб2123:00+7з0076100 0.0 100415
02:00+6всв3486100 0.4 1002513
05:00+5всв2689100 0.8 1000601
08:00+6св3584100 1.1 999593
11:00+7ссв2477100 1.5 998950
14:00+7ссв2382100 1.6 998792
17:00+8вюв1172100 2.0 998850
20:00+5зюз2594100 3.8 999754
22 мая, вс
вс2223:00+5з5108791 8.9 1000901
02:00+2зюз5129111 0.1 1001535
05:00+2зюз51086100 0.1 1002785
08:00+3зюз5982100 0.0 1003990
11:00+7зюз5858100 0.0 10031283
14:00+11юз4750100 0.0 10022000
17:00+9ю4674100 0.1 1003970
20:00+7всв2597100 2.1 1003234